Regional Weather Roundup
Issued by NWS Upton, NY

Current Version | Previous Version | Text Only | Print | Product List | Glossary On
Versions: 1 2 3 4 5 6 7 8 9 10 11 12 13 14 15 16 17 18 19 20 21 22 23 24 25 26 27 28 29 30 31 32 33 34 35 36 37 38 39 40 41 42 43 44 45 46 47 48 49 50
000
ASUS41 KOKX 090308
RWROKX

REGIONAL WEATHER ROUNDUP
NATIONAL WEATHER SERVICE NEW YORK NY
1000 PM EST THU DEC 08 2016

NOTE: "FAIR" INDICATES FEW OR NO CLOUDS BELOW 12,000 FEET WITH NO
SIGNIFICANT WEATHER AND/OR OBSTRUCTIONS TO VISIBILITY.

NYZ071-072-176-178-NJZ106-104-090400-
NEW YORK CITY METRO AREA

CITY           SKY/WX    TMP DP  RH WIND       PRES   REMARKS
Central Park   NOT AVBL
Wall St Helipt CLEAR     38  20  48 VRB7G17   29.99S WCI  33
Bronx Bot Gard NOT AVBL
LaGuardia APRT PTCLDY    38  16  40 W15G23    29.98R WCI  29
Kennedy INTL   PTCLDY    38  15  39 W20       29.99R WCI  28
Breezy Point     N/A     36 N/A N/A W18G26      N/A  WCI  25
Newark/Liberty PTCLDY    35  15  44 W13       30.00R WCI  26
Teterboro      PTCLDY    36  15  42 W12       29.98R WCI  28
$$

NYZ177-179-078>081-090400-
LONG ISLAND NEW YORK

CITY           SKY/WX    TMP DP  RH WIND       PRES   REMARKS
Jones Beach      N/A     36 N/A N/A W14G21      N/A  WCI  27
Matinecock PT    N/A     41 N/A N/A W23         N/A
Farmingdale    CLEAR     36  18  48 W12       29.97R WCI  28
MacArthur/ISP  PTCLDY    36  18  48 W12       29.94R WCI  28
Shirley        MOCLDY    36  21  54 W9        29.94R WCI  29
Westhampton    CLEAR     35  18  49 W10       29.94R WCI  27
Southampton    NOT AVBL
Bridgehampton  NOT AVBL
East Hampton     N/A     38  20  48 NW6G17    29.91R WCI  33
Montauk          N/A     40  23  50 W16G25    29.90R WCI  31
$$

NYZ052-065-067-090400-
HUDSON VALLEY

CITY           SKY/WX    TMP DP  RH WIND       PRES   REMARKS
White Plains   CLEAR     35  16  45 W10       29.93S WCI  27
Newburgh       CLEAR     34  23  64 W12       29.95R WCI  25
Montgomery     CLOUDY    35  20  54 NW7       29.94R WCI  29
Poughkeepsie   MOCLDY    33  23  66 W8        29.95R WCI  26
Albany         PTCLDY    32  15  49 W10       29.89S WCI  24
$$

NJZ001-105-106-008-010-013-015-019>022-104-090400-
NEW JERSEY

CITY           SKY/WX    TMP DP  RH WIND       PRES   REMARKS
Newark/Liberty PTCLDY    35  15  44 W13       30.00R WCI  26
Teterboro      PTCLDY    36  15  42 W12       29.98R WCI  28
Caldwell       CLEAR     35  15  44 W9G22     29.99R WCI  28
Somerville     CLEAR     34  16  47 VRB6      30.01R WCI  29
Linden           N/A     34  16  48 W14       30.01R WCI  25
Sussex         CLOUDY    34  16  47 VRB7      29.97R WCI  28
Andover          N/A     32  15  49 VRB3      29.98R
Trenton        CLEAR     33  15  47 W12G18    30.04R WCI  24
Millville      CLEAR     34  20  56 NW20G26   30.10R WCI  23
Atlantic City  CLEAR     34  17  50 NW14      30.07R WCI  25
Wrightstown    CLEAR     33  15  48 W16G23    30.02R WCI  23
Toms River     CLEAR     33  16  49 W13G23    30.04R WCI  24
Belmar         CLEAR     32  17  54 W13       30.03R WCI  22
$$

PAZ047>061-062-071-090400-
EASTERN PENNSYLVANIA

CITY           SKY/WX    TMP DP  RH WIND       PRES   REMARKS
Philadelphia   CLEAR     34  14  43 W17G28    30.10R WCI  23
Allentown      CLOUDY    33  14  45 W17G26    30.04R WCI  22
Scranton       CLOUDY    32  14  47 W15G26    29.99R WCI  22
$$

CTZ002-004>006-009-010-012-RIZ004-006-007-MAZ004-011-015-090400-
SOUTHERN NEW ENGLAND
 IN CT

CITY           SKY/WX    TMP DP  RH WIND       PRES   REMARKS
Bradley INTL   PTCLDY    32  18  56 W7        29.90R WCI  26
Hartford       CLEAR     35  21  56 NW8       29.92R WCI  29
Danbury        CLEAR     33  21  61 NW8       29.93R WCI  26
Wtrbury/Oxford PTCLDY    32  18  55 W6        29.91R WCI  26
Bridgeport     NOT AVBL
Meriden        CLEAR     36  21  54 W8        29.92R WCI  30
New Haven      CLEAR     37  22  54 NW7       29.93R WCI  32
Chester        MOCLDY    34  21  60 NW5       29.90R WCI  30
Groton         PTCLDY    38  22  52 NW12      29.90R WCI  30
Wilimantic     PTCLDY    36  20  52 W10       29.90R WCI  28

 IN RI

CITY           SKY/WX    TMP DP  RH WIND       PRES   REMARKS
Providence     PTCLDY    35  23  61 W10       29.87R WCI  27
Block Island   CLEAR     39  22  50 W14G23    29.88R WCI  31
Westerly       PTCLDY    36  20  52 NW3       29.90R
 IN MA

CITY           SKY/WX    TMP DP  RH WIND       PRES   REMARKS
Boston         CLEAR     36  20  52 W16G23    29.83S WCI  26
Worcester      CLEAR     30  17  58 W15       29.80S WCI  19
Westfield      CLEAR     31  18  58 CALM      29.88S
Provincetown   CLEAR     39  23  52 NW23G33   29.82R WCI  28
Nantucket      CLEAR     39  26  59 NW14      29.84R WCI  31
$$

ANZ330-335-338-340-345-350-353-355-090400-
COASTAL MARINE OBSERVATIONS


STATION/POSITION TIME  SKY/WX   TEMP    WIND        PRES    VSBY  WAVE
                                AIR SEA DIR/SP/G                  HT/PER
                 (UTC)          (F)     (DEG/KT/KT) (MB)    (MI)  (FT/S)
NY HARB ENTRANCE 0150            40 52  280/ 23/ 29 1014.5          4/ 4
20 S FIRE ISLAND 0250            41 53  300/ 25/ 33 1014.0          7/ 6
GREAT SOUTH BAY  0230            39 43                N/A
23 SSW MONTAUK P 0150            43 54  280/ 23/ 31 1012.4          5/ 6
15 E BARNEGAT LI 0230               53                N/A           5/ 5
HUDSON CANYON    0150            45 55              1013.6          7/ 6
KINGS POINT      0236            38 47              1014.7
EXECUTION ROCKS  0245            39     260/ 14/ 19   N/A
CENTRAL LI SOUND 0245            41 50  290/ 21/ 27   N/A           4/ 4
EASTERN LI SOUND NOT AVBL
ROBBINS REEF     0236            36     280/ 19/ 21 1015.5
$$


>>>>>>>>>>>>>>>>>>>>>>>>>>>> KEY <<<<<<<<<<<<<<<<<<<<<<<<<<<
>                                                          <
>     SKY/WX - Sky Condition/Present Weather               <
>     TMP    - Temperature in Fahrenheit                   <
>     DP     - Dew Point in Fahrenheit                     <
>     RH     - Relative Humidity in Percent                <
>     WIND   - Direction (from) and Speed in MPH           <
>     PRES   - Mean Sea Level Pressure (inches of Hg)      <
>     WCI    - Wind Chill Index                            <
>     VSB    - VISIBILITY IN MILES                         <
>     HX     - HEAT INDEX                                  <
>     TC     - TEMPERATURE IN CELSIUS                      <
>     VRB    - VARIABLE WIND DIRECTION                     <
>                                                          <
>>>>>>>>>>>>>>>>>>>>>>>>>>>> KEY <<<<<<<<<<<<<<<<<<<<<<<<<<<



USA.gov is the U.S. government's official web portal to all federal, state and local government web resources and services.